Location: Erlenbrunn
(49.1717°N, 7.6142°E)
Time: 19:47:20
(UTC+00:00)

Cosmos 389 Rocket - Visible Passes

Search period start: 13 April 2021 00:00
Search period end: 23 April 2021 00:00
Orbit: 441 x 472 km, 81.1° (Epoch: 13 April)

Date Brightness Start Highest point End Pass type
(mag) Time Alt. Az. Time Alt. Az. Time Alt. Az.
13 Apr 3.5 21:15:45 43° N 21:15:45 43° N 21:18:19 10° N visible
14 Apr 2.9 20:42:04 48° NE 20:42:04 48° NE 20:44:54 10° NNE visible
14 Apr 5.5 22:15:49 12° WNW 22:16:29 12° WNW 22:17:55 10° NW visible
15 Apr 3.4 20:08:20 29° E 20:08:20 29° E 20:11:15 10° NNE visible
15 Apr 4.8 21:42:05 19° W 21:42:49 21° WNW 21:45:34 10° NNW visible
16 Apr 4.2 19:34:31 16° E 19:34:55 16° E 19:37:10 10° NE visible
16 Apr 3.8 21:08:15 30° WSW 21:09:16 37° WNW 21:12:36 10° N visible
17 Apr 2.5 20:34:19 32° SSW 20:35:48 76° WNW 20:39:22 10° N visible
18 Apr 2.6 20:00:16 20° SSE 20:02:25 52° E 20:05:55 10° NNE visible
18 Apr 5.5 21:35:39 10° W 21:37:26 13° WNW 21:39:15 10° NNW visible
19 Apr 3.5 19:26:10 10° SSE 19:29:09 27° E 19:32:12 10° NE visible
19 Apr 4.9 21:00:55 10° WSW 21:03:47 23° WNW 21:06:42 10° NNW visible
20 Apr 3.7 20:26:53 10° SW 20:30:15 42° WNW 20:33:41 10° N visible
21 Apr 2.5 19:53:16 10° SSW 19:56:47 86° W 20:00:23 10° N visible
22 Apr 2.8 19:20:03 10° S 19:23:26 46° E 19:26:53 10° NNE visible
22 Apr 5.6 20:56:18 10° W 20:58:22 15° WNW 21:00:28 10° NNW visible
